Zurück zum Katalog

COSMOS 2541

AktivMilitärHEO
NORAD 44552·PAYLOAD·🇷🇺 Russia

Gestartet Sep 26, 2019 von Plesetsk Cosmodrome

Loading…

Nächste Überflüge (nächste 24 Stunden)

TLE

AktuellSource: Space-Track

Epoche: Sep 14, 2026, 00:08 UTC

1 44552U 19065A   26257.00615412  .00000115  00000-0  00000-0 0  9999
2 44552  62.7132 148.6622 6508130 272.0599  20.2644  2.00578682 51001

Verfolge COSMOS 2541 in Echtzeit mit AllMySat

Download on the App Store